This is the latest recevied weather packets stored in our database for station/object IT9FBN-3. If no packets are shown the sender has not sent any weather packets the latest 10 day(s).
| Time | Temp. | Humidity | Pressure | Rain* | Wind** | Luminosity | Snow |
|---|---|---|---|---|---|---|---|
| 1778211902 | 16.67° C | 66% | 1012 hPa | 0 mm | - | - | - |
| 1778211602 | 16.67° C | 66% | 1011.9 hPa | 0 mm | - | - | - |
| 1778211302 | 16.67° C | 66% | 1011.8 hPa | 0 mm | - | - | - |
| 1778211002 | 16.67° C | 66% | 1011.7 hPa | 0 mm | - | - | - |
| 1778210702 | 16.67° C | 66% | 1011.7 hPa | 0 mm | - | - | - |
| 1778210402 | 15.56° C | 66% | 1011.7 hPa | 0 mm | - | - | - |
| 1778210102 | 15.56° C | 68% | 1011.6 hPa | 0 mm | - | - | - |
| 1778209802 | 15.56° C | 67% | 1011.7 hPa | 0 mm | - | - | - |
| 1778209502 | 15.56° C | 66% | 1011.6 hPa | 0 mm | - | - | - |
| 1778209202 | 15.56° C | 66% | 1011.6 hPa | 0 mm | - | - | - |
| 1778208902 | 15.56° C | 66% | 1011.4 hPa | 0 mm | - | - | - |
| 1778208602 | 15.56° C | 68% | 1011.4 hPa | 0 mm | - | - | - |
| 1778208302 | 15.56° C | 68% | 1011.4 hPa | 0 mm | - | - | - |
| 1778208002 | 15.56° C | 68% | 1011.4 hPa | 0 mm | - | - | - |
| 1778207702 | 15.56° C | 70% | 1011.4 hPa | 0 mm | - | - | - |
| 1778207402 | 15.56° C | 69% | 1011.2 hPa | 0 mm | - | - | - |
| 1778207102 | 16.11° C | 68% | 1011.3 hPa | 0 mm | - | - | - |
| 1778206802 | 15.56° C | 65% | 1011.2 hPa | 0 mm | - | - | - |
| 1778206502 | 15.56° C | 66% | 1011 hPa | 0 mm | - | - | - |
| 1778206202 | 15.56° C | 66% | 1011.1 hPa | 0 mm | - | - | - |
| 1778205902 | 16.11° C | 66% | 1011.4 hPa | 0 mm | - | - | - |
| 1778205602 | 15.56° C | 65% | 1011.4 hPa | 0 mm | - | - | - |
| 1778205302 | 15.56° C | 65% | 1011.2 hPa | 0 mm | - | - | - |
| 1778205002 | 15.56° C | 70% | 1011.1 hPa | 0 mm | - | - | - |
| 1778204702 | 16.11° C | 71% | 1011.2 hPa | 0 mm | - | - | - |
* Rain latest hour (hover to see other rain measurements)
** Current wind speed in m/s (hover to see current wind gust speed)